Fairfield, CA

9:56 PM PDT on September 24, 2017 (GMT -0700)
Travis Air Force Base

Weather History for KSUU - November, 2013

Change the Weather History Date:

Saturday, November 23, 2013

  Actual Average Record
Temperature  
Mean Temperature 48 °F -  
Max Temperature 61 °F 59 °F 73 °F (2005)
Min Temperature 36 °F 42 °F 32 °F (2003)
Degree Days  
Heating Degree Days 16    
Moisture  
Dew Point 40 °F    
Average Humidity 78    
Maximum Humidity 99    
Minimum Humidity 41    
Precipitation  
Precipitation 0.00 in - - ()
Sea Level Pressure  
Sea Level Pressure 30.05 in    
Wind  
Wind Speed 8 mph (East)    
Max Wind Speed 14 mph    
Max Gust Speed 20 mph    
Visibility 9 miles    
Events      
Averages and records for this station are not official NWS values.
T = Trace of Precipitation, MM = Missing Value Source: NWS Daily Summary

Daily Weather History Graph

Daily Weather History Graph

Search for Another Location

Airport or City:

Trip Planner

Search our weather history database for the weather conditions in past years. The results will help you decide how hot, cold, wet, or windy it might be!

Date:

Astronomy

Nov. 23, 2013 Rise Set
Actual Time 6:57 AM PST 4:50 PM PST
Civil Twilight 6:29 AM PST 5:19 PM PST
Nautical Twilight 5:56 AM PST 5:51 PM PST
Astronomical Twilight 5:25 AM PST 6:22 PM PST
Moon 10:21 PM PST (11/23) 11:19 AM PST (11/23)
Length of Visible Light 10h 49m
Length of Day
9h 52m
Waning Gibbous, 68% of the Moon is Illuminated
Nov 23
Waning Gibbous
Nov 25
Last Quarter
Dec 2
New
Dec 9
First Quarter
Dec 17
Full

Hourly Weather History & Observations

Time (PST) Temp. Windchill Dew Point Humidity Pressure Visibility Wind Dir Wind Speed Gust Speed Precip Events Conditions
12:58 AM 45.0 °F 40.1 °F 41.4 °F 87% 30.02 in 10.0 mi East 9.2 mph - N/A   Clear
1:58 AM 41.5 °F 36.4 °F 41.2 °F 99% 30.02 in 10.0 mi NNE 8.1 mph - N/A   Clear
2:58 AM 39.7 °F 34.3 °F 39.4 °F 99% 30.04 in 10.0 mi ESE 8.1 mph - N/A   Clear
3:58 AM 37.6 °F 30.0 °F 37.4 °F 99% 30.03 in 7.0 mi ENE 11.5 mph - N/A   Clear
4:58 AM 36.5 °F 29.7 °F 36.3 °F 99% 30.03 in 10.0 mi NNE 9.2 mph - N/A   Clear
5:58 AM 38.8 °F 31.6 °F 38.7 °F 99% 30.04 in 4.0 mi NE 11.5 mph - N/A   Clear
6:58 AM 39.7 °F - 39.4 °F 99% 30.06 in 10.0 mi NW 2.3 mph - N/A   Clear
7:58 AM 41.9 °F 40.0 °F 41.4 °F 98% 30.06 in 10.0 mi East 3.5 mph - N/A   Clear
8:58 AM 48.2 °F - 47.3 °F 97% 30.08 in 10.0 mi East 13.8 mph 19.6 mph N/A   Clear
9:58 AM 53.1 °F - 43.7 °F 71% 30.09 in 10.0 mi ENE 10.4 mph - N/A   Clear
10:58 AM 56.8 °F - 41.0 °F 55% 30.08 in 10.0 mi ESE 6.9 mph - N/A   Clear
11:58 AM 59.5 °F - 35.6 °F 41% 30.06 in 10.0 mi ENE 10.4 mph - N/A   Clear
12:58 PM 61.0 °F - 39.6 °F 45% 30.04 in 10.0 mi East 9.2 mph - N/A   Clear
1:58 PM 61.2 °F - 39.7 °F 45% 30.02 in 10.0 mi Variable 6.9 mph - N/A   Clear
2:58 PM 61.2 °F - 37.6 °F 42% 30.03 in 10.0 mi SE 5.8 mph - N/A   Clear
3:58 PM 59.9 °F - 38.5 °F 45% 30.03 in 10.0 mi SSE 5.8 mph - N/A   Clear
4:58 PM 55.9 °F - 40.1 °F 55% 30.03 in 10.0 mi Calm Calm - N/A   Clear
5:58 PM 46.9 °F - 38.7 °F 73% 30.04 in 10.0 mi WSW 2.3 mph - N/A   Clear
6:58 PM 50.2 °F - 39.7 °F 67% 30.05 in 10.0 mi SSW 4.6 mph - N/A   Clear
7:58 PM 45.1 °F 40.8 °F 39.9 °F 82% 30.06 in 10.0 mi SW 8.1 mph - N/A   Clear
8:58 PM 41.4 °F 35.7 °F 40.1 °F 95% 30.08 in 10.0 mi SW 9.2 mph - N/A   Clear
9:58 PM 41.7 °F 38.0 °F 39.7 °F 93% 30.09 in 10.0 mi SW 5.8 mph - N/A   Clear
10:58 PM 43.2 °F 41.5 °F 41.2 °F 93% 30.11 in 4.0 mi NNW 3.5 mph - N/A   Clear
11:58 PM 38.1 °F 35.7 °F 37.4 °F 97% 30.12 in 4.0 mi SE 3.5 mph - N/A   Clear